Regional Weather Roundup
Issued by NWS Nashville, TN

Home | Current Version | Previous Version | Text Only | Print | Product List | Glossary On
Versions: 1 2 3 4 5 6 7 8 9 10 11 12 13 14 15 16 17 18 19 20 21 22 23 24 25 26 27 28 29 30 31 32 33 34 35 36 37 38 39 40 41 42 43 44 45 46 47 48 49 50
000
ASUS44 KOHX 291510
RWROHX
MIDDLE TENNESSEE HOURLY WEATHER ROUNDUP
NATIONAL WEATHER SERVICE NASHVILLE TN
1000 AM CDT SAT AUG 29 2015

NOTE: "FAIR" INDICATES FEW OR NO CLOUDS BELOW 12,000 FEET WITH
NO SIGNIFICANT WEATHER AND/OR OBSTRUCTIONS TO VISIBILITY.

* THESE REPORTS ARE NOT UNDER NWS QUALITY CONTROL AND MAY NOT
  REPORT WEATHER SUCH AS PRECIPITATION AND FOG.


TNZ005>011-023>034-057-059-062>066-078-080-291600
...NORTHERN MIDDLE TENNESSEE...

CITY           SKY/WX    TMP DP  RH WIND       PRES   REMARKS
CLARKSVILLE    SUNNY     81  69  67 S12       30.12S
CROSSVILLE     PTSUNNY   76  66  71 VRB6      30.26R
DICKSON        MOSUNNY   75  68  78 S8        30.14R
LIVINGSTON     MOSUNNY   78  67  68 S7        30.21
NASHVILLE      PTSUNNY   82  67  60 SW8       30.15R
SMYRNA         MOSUNNY   81  69  66 S10       30.16R
$$
TNZ056-058-060-061-075>077-079-093>097-291600
...SOUTHERN MIDDLE TENNESSEE...

CITY           SKY/WX    TMP DP  RH WIND       PRES   REMARKS
COLUMBIA       MOSUNNY   82  75  78 S7        30.14R
LEWISBURG      PTSUNNY   81  68  64 S8        30.15R
MCMINNVILLE    SUNNY     81  72  74 VRB3      30.19R
SHELBYVILLE    CLOUDY    81  72  74 SE6       30.18R
TULLAHOMA      MOSUNNY   77  66  69 SE9       30.20R
WINCHESTER     MOSUNNY   79  70  73 SE10      30.18S
$$


...KEY TO REMARKS...
VSB - VISIBILITY IN MILES
WCI - WIND CHILL INDEX
HX  - HEAT INDEX



USA.gov is the U.S. government's official web portal to all federal, state and local government web resources and services.